Погода в Кельце

Польша     50°51′52″N   20°37′39″E
темп.,
°C
ветер,
м/с
пор.,
м/с
влажн.,
%
обл.,
%
осадки,
мм/ч
давл.,
гПа
погр.,
м
28 февраля, вс
вс2801:000сз389417 0.1 1035264
04:000зсз399520 0.0 1035287
07:000зсз4108959 0.0 1034396
10:00+3зсз587226 0.0 1034546
13:00+5з6107813 0.0 1032619
16:00+5зсз6117517 0.0 1031934
19:00+4сз6118451 0.0 1031747
22:00+2ссз499085 0.0 1032553
1 марта, пн
пн101:00+2сз399377 0.0 1033367
04:00+2с359497 0.0 1033288
07:00+2сз259496 0.0 1035239
10:00+3сз2487100 0.0 1035401
13:00+5зсз3481100 0.0 1035528
16:00+6з247885 0.0 1034544
19:00+3з229048 0.0 103522
22:00+2з23910 0.0 103536
2 марта, вт
вт201:00+1з23920 0.0 103566
04:00+1з37930 0.0 1033148
07:00+1з39940 0.0 1033224
10:00+6зсз48750 0.0 1033455
13:00+9зсз58610 0.0 1032621
16:00+9зсз38630 0.0 1030543
19:00+5зсз36770 0.0 1031115
22:00+3сз23850 0.0 103233
3 марта, ср
ср301:00+2з22910 0.0 103225
04:00+1з22930 0.0 103126
07:00+1зсз22940 0.0 103134
10:00+6зсз24760 0.0 1031337
13:00+9зсз24590 0.0 1029628
16:00+9зсз23600 0.0 1027233
19:00+5зсз11710 0.0 102722
22:00+3юз11720 0.0 102622
4 марта, чт
чт401:00+2юз12763 0.0 102422
04:00+2юз238415 0.0 102222
07:00+2юз258934 0.0 1020103
10:00+7зюз477033 0.0 1018457
13:00+11зюз575721 0.0 1015983
16:00+10зюз386297 0.0 1013481
19:00+7з268498 0.1 1012209
22:00+6юз4129097 0.9 1011732